User: anonymous   Login
Location: Ab? ar R?sh Ba?r?
(24.1861°N, 32.8847°E)
Time: 18:30:28
(UTC+00:00)
Language:

Cosmos 2333 Rocket - Orbit

View from above orbital plane
View from above orbital plane
View from above satellite
View from above satellite

Ground track
Ground track

The orbit data is extracted from the following two-line orbital elements,

1 24298U 96051B   22020.72107820 -.00000048  00000-0  61682-6 0  9991
2 24298  70.8202 122.5670 0018473 215.5043 144.4849 14.12402803308574
Epoch (UTC): 20 January 2022 17:18:21
Eccentricity: 0.0018473
inclination: 70.8202°
perigee height: 838 km
apogee height: 864 km
right ascension of ascending node: 122.5670°
argument of perigee: 215.5043°
revolutions per day: 14.12402803
mean anomaly at epoch: 144.4849°
orbit number at epoch: 30857

The dashed part of the orbit path shows where the satellite is in the earth's shadow,  

DLR